AKDT,Max TemperatureF,Mean TemperatureF,Min TemperatureF,Max Dew PointF,MeanDew PointF,Min DewpointF,Max Humidity, Mean Humidity, Min Humidity, Max Sea Level PressureIn, Mean Sea Level PressureIn, Min Sea Level PressureIn, Max VisibilityMiles, Mean VisibilityMiles, Min VisibilityMiles, Max Wind SpeedMPH, Mean Wind SpeedMPH, Max Gust SpeedMPH,PrecipitationIn, CloudCover, Events, WindDirDegrees
2013-5-1,48,37,28,31,24,18,100,60,36,29.81,29.64,29.54,10,10,5,10,4,,0.00,5,,348
2013-5-2,42,39,36,39,35,28,100,87,65,29.85,29.79,29.65,10,9,5,7,2,,0.08,8,Rain,350
2013-5-3,45,40,35,38,36,34,100,88,68,29.92,29.85,29.79,10,10,10,13,4,17,0.00,8,Rain,334
2013-5-4,39,36,33,37,35,33,100,94,83,29.94,29.82,29.75,10,7,1,7,3,,0.38,8,Rain-Snow,76
2013-5-5,48,40,35,35,22,17,96,50,33,30.13,30.09,29.96,10,10,10,12,3,,0.00,3,,295
2013-5-6,48,40,35,27,24,21,64,51,37,30.26,30.20,30.14,10,10,10,12,4,,0.00,4,,265
2013-5-7,51,42,35,28,26,23,72,54,39,30.29,30.27,30.24,10,10,10,9,2,,0.00,7,,296
2013-5-8,55,46,36,31,26,21,82,50,27,30.27,30.25,30.22,10,10,10,14,4,,0.00,2,,309
2013-5-9,55,46,37,30,25,21,58,45,35,30.30,30.26,30.23,10,10,9,10,2,,0.00,5,Rain,353
2013-5-10,62,48,35,31,29,25,82,47,26,30.23,30.08,29.94,10,10,10,9,2,,0.00,3,,346
2013-5-11,57,50,46,40,35,30,69,54,39,29.93,29.74,29.57,10,10,9,7,3,,0.00,8,Rain,321
2013-5-12,54,49,44,46,41,36,97,74,57,29.57,29.52,29.47,10,10,6,8,3,,0.13,8,Rain,342
2013-5-13,55,48,42,44,28,12,100,57,20,29.47,29.43,29.39,10,10,10,14,6,23,0.02,6,Rain,331
2013-5-14,48,42,36,27,16,12,60,36,29,29.63,29.55,29.48,10,10,10,9,4,,0.00,6,,340
2013-5-15,51,44,37,31,24,21,73,47,31,29.74,29.72,29.64,10,10,10,15,5,24,0.00,6,,177
2013-5-16,43,40,37,40,35,26,100,83,51,29.73,29.59,29.46,10,10,10,9,6,,0.05,8,Rain,332
2013-5-17,39,36,33,39,35,27,100,96,75,29.55,29.45,29.39,10,5,0,10,3,,0.75,8,Fog-Rain-Snow,360
2013-5-18,39,32,26,25,21,11,86,67,32,30.17,29.81,29.57,10,6,1,13,7,23,0.01,8,Snow,29
2013-5-19,46,37,28,22,14,10,64,37,26,30.61,30.46,30.21,10,10,10,12,5,,0.00,0,,290
2013-5-20,53,42,33,22,19,15,54,38,27,30.65,30.60,30.55,10,10,10,10,3,,0.00,0,,268
2013-5-21,53,44,35,32,26,21,61,48,39,30.57,30.43,30.27,10,10,10,13,4,,0.00,3,,268
2013-5-22,57,47,39,41,32,28,86,57,37,30.26,30.17,30.12,10,10,10,12,2,,0.00,7,Rain,272
2013-5-23,57,50,44,45,41,36,100,72,49,30.16,30.13,30.09,10,10,9,9,2,,0.02,6,Rain,294
2013-5-24,66,53,42,39,37,35,85,57,34,30.09,30.03,29.97,10,10,10,8,2,,0.00,2,,300
2013-5-25,70,57,45,38,32,19,65,41,17,29.99,29.95,29.87,10,10,10,15,4,20,0.00,0,,257
2013-5-26,63,53,43,42,38,33,86,58,34,29.94,29.90,29.87,10,10,10,8,4,,0.00,5,,266
2013-5-27,75,62,50,42,40,37,74,48,27,29.91,29.83,29.74,10,10,10,8,4,,0.00,2,,297
2013-5-28,72,58,46,46,42,39,77,57,39,29.78,29.71,29.63,10,10,10,8,4,,0.00,0,,284
2013-5-29,78,64,52,45,41,38,71,47,26,29.74,29.67,29.65,10,10,10,10,3,18,0.00,0,,307
2013-5-30,66,58,51,44,41,38,77,54,38,30.01,29.90,29.76,10,10,9,12,5,,0.00,0,,276
2013-5-31,59,52,48,46,44,42,87,75,62,30.16,30.09,30.03,10,10,10,12,5,,0.00,3,,284